Location: Adrasan
(36.3319°N, 30.4314°E)
Time: 22:27:36
(UTC+00:00)

Cosmos 1655 Rocket - Visible Passes

Search period start: 27 May 2024 00:00
Search period end: 06 June 2024 00:00
Orbit: 971 x 1004 km, 83.0° (Epoch: 27 May)

Date Brightness Start Highest point End Pass type
(mag) Time Alt. Az. Time Alt. Az. Time Alt. Az.
27 May 5.1 20:43:45 32° ENE 20:43:45 32° ENE 20:48:36 10° NNE visible
27 May 5.1 22:28:40 34° WNW 22:28:40 34° WNW 22:34:17 10° NNW visible
28 May 4.2 21:12:34 62° ENE 21:12:34 62° ENE 21:18:17 10° NNE visible
28 May 5.9 22:57:29 17° WNW 22:58:08 17° WNW 23:02:08 10° NNW visible
29 May 5.8 19:56:27 17° ENE 19:56:27 17° ENE 19:59:56 10° NE visible
29 May 4.2 21:41:22 63° WNW 21:41:22 63° WNW 21:47:26 10° N visible
30 May 4.9 20:25:14 34° E 20:25:14 34° E 20:30:29 10° NNE visible
30 May 5.1 22:10:08 32° W 22:10:24 32° WNW 22:16:03 10° NNW visible
31 May 4.0 20:54:00 68° ENE 20:54:00 68° ENE 21:00:06 10° NNE visible
31 May 6.0 22:38:54 16° W 22:39:58 16° WNW 22:43:47 10° NNW visible
01 Jun 5.6 19:37:50 18° E 19:37:54 18° E 19:41:54 10° NE visible
01 Jun 4.2 21:22:45 61° W 21:22:52 61° W 21:29:13 10° N visible
02 Jun 4.8 20:06:34 36° E 20:06:37 36° E 20:12:20 10° NNE visible
02 Jun 5.2 21:51:29 30° W 21:52:13 31° WNW 21:57:48 10° NNW visible
03 Jun 3.9 20:35:18 71° ESE 20:35:33 72° E 20:41:56 10° N visible
03 Jun 6.1 22:20:12 14° W 22:21:48 15° WNW 22:25:27 10° NW visible
04 Jun 5.5 19:19:05 18° E 19:19:41 18° E 19:23:50 10° NE visible
04 Jun 4.3 21:03:59 56° WSW 21:04:41 59° W 21:11:00 10° N visible
05 Jun 4.6 19:47:46 36° ESE 19:48:24 37° E 19:54:12 10° NNE visible
05 Jun 5.3 21:32:41 27° W 21:34:02 30° WNW 21:39:33 10° NNW visible
